Location: Unspecified
(0.0000°N, 0.0000°E)
Time: 16:37:39
(UTC+00:00)

Vanguard 1 Rocket - Pass Details

Date: 11 December 2017
Orbit: 655 x 4222 km, 34.3° (Epoch: 21 February)

Event Time Altitude Azimuth Distance (km) Brightness Sun altitude
Rises 20:17:35 0° 319° (NW) 6,219 11.8 -32.8°
Reaches altitude 10° 20:23:25 10° 336° (NNW) 5,826 11.4 -34.0°
Enters shadow 20:33:48 20° 10° (N) 5,861 11.1 -36.3°
